JTLX930 EBCI-EHRD

Flight info

Callsign JTLX930
Flight time 0h 25m
Altitude 17000
Route CIV DCT HELEN
Aircraft P180/L-SBDFGM3RWXY/LB1

Departure

Time 2026-05-01 13:30
Airport Brussels South Charleroi Airport (EBCI)

Arrival

Time 2026-05-01 13:55
Airport Rotterdam The Hague Airport (EHRD)
Time Latitude Longitude Altitude Speed Heading
2026-05-01 13:00 50.45881 4.45514 634 ft 0 kts 245°
2026-05-01 13:26 50.45880 4.45511 607 ft 2 kts 246°
2026-05-01 13:26 50.45882 4.45477 618 ft 5 kts 314°
2026-05-01 13:26 50.45922 4.45478 618 ft 8 kts 56°
2026-05-01 13:27 50.45950 4.45572 615 ft 11 kts 65°
2026-05-01 13:27 50.45987 4.45704 609 ft 15 kts 66°
2026-05-01 13:27 50.46044 4.45957 607 ft 13 kts 82°
2026-05-01 13:28 50.46095 4.46189 611 ft 9 kts 65°
2026-05-01 13:28 50.46147 4.46248 613 ft 8 kts 344°
2026-05-01 13:29 50.46174 4.46229 615 ft 6 kts 338°
2026-05-01 13:29 50.46220 4.46092 606 ft 6 kts 248°
2026-05-01 13:30 50.44658 4.40358 2026 ft 244 kts 243°
2026-05-01 13:31 50.43128 4.35363 3094 ft 241 kts 245°
2026-05-01 13:31 50.41445 4.28096 4604 ft 245 kts 269°
2026-05-01 13:32 50.43409 4.24042 6246 ft 223 kts 315°
2026-05-01 13:33 50.43282 4.19658 10647 ft 163 kts 283°
2026-05-01 13:33 50.44318 4.16010 12786 ft 208 kts 279°
2026-05-01 13:34 50.45429 4.10620 13297 ft 307 kts 294°
2026-05-01 13:34 50.48003 4.04787 13776 ft 335 kts 309°
2026-05-01 13:35 50.51188 3.99292 14285 ft 342 kts 305°
2026-05-01 13:35 50.52423 3.96168 14511 ft 343 kts 296°
2026-05-01 13:35 50.54791 3.89616 14980 ft 347 kts 301°
2026-05-01 13:36 50.56230 3.86554 15218 ft 350 kts 309°
2026-05-01 13:36 50.58204 3.84324 15430 ft 355 kts 336°
2026-05-01 13:36 50.63048 3.83604 16093 ft 349 kts
2026-05-01 13:37 50.65460 3.83758 16532 ft 346 kts
2026-05-01 13:37 50.67865 3.83831 16995 ft 344 kts
2026-05-01 13:37 50.70251 3.83979 17461 ft 342 kts
2026-05-01 13:37 50.72626 3.84134 17931 ft 341 kts
2026-05-01 13:38 50.77456 3.84400 18104 ft 361 kts
2026-05-01 13:38 50.80009 3.84538 17920 ft 372 kts
2026-05-01 13:38 50.82594 3.84671 17731 ft 380 kts
2026-05-01 13:39 50.85255 3.84832 17546 ft 385 kts
2026-05-01 13:39 50.87942 3.84977 17365 ft 389 kts
2026-05-01 13:39 50.90665 3.85115 17224 ft 389 kts
2026-05-01 13:39 50.93358 3.85274 17224 ft 387 kts
2026-05-01 13:40 50.96029 3.85430 17224 ft 377 kts
2026-05-01 13:40 50.98596 3.85557 17223 ft 363 kts
2026-05-01 13:40 51.01083 3.85699 17220 ft 354 kts
2026-05-01 13:40 51.03520 3.85851 17216 ft 347 kts
2026-05-01 13:41 51.05927 3.85982 17218 ft 343 kts
2026-05-01 13:41 51.08292 3.86101 17220 ft 339 kts
2026-05-01 13:41 51.10646 3.86248 17219 ft 337 kts
2026-05-01 13:41 51.12949 3.86393 17219 ft 335 kts
2026-05-01 13:42 51.15308 3.86501 17153 ft 336 kts
2026-05-01 13:42 51.17673 3.86621 16771 ft 345 kts
2026-05-01 13:42 51.20073 3.86781 16319 ft 353 kts
2026-05-01 13:42 51.22544 3.86926 15850 ft 354 kts
2026-05-01 13:43 51.24975 3.86916 15389 ft 346 kts 359°
2026-05-01 13:43 51.27367 3.86817 14937 ft 340 kts
2026-05-01 13:43 51.29721 3.86834 14495 ft 336 kts
2026-05-01 13:43 51.32039 3.86822 14057 ft 329 kts
2026-05-01 13:44 51.34305 3.86724 13606 ft 323 kts 359°
2026-05-01 13:44 51.36535 3.86635 13180 ft 317 kts
2026-05-01 13:44 51.38729 3.86624 12764 ft 312 kts
2026-05-01 13:44 51.40886 3.86692 12350 ft 308 kts
2026-05-01 13:45 51.42825 3.87866 11950 ft 300 kts 35°
2026-05-01 13:45 51.44530 3.89834 11564 ft 296 kts 39°
2026-05-01 13:45 51.46205 3.91745 11176 ft 295 kts 38°
2026-05-01 13:45 51.47843 3.93642 10803 ft 293 kts 39°
2026-05-01 13:46 51.49492 3.95576 10417 ft 292 kts 39°
2026-05-01 13:46 51.51140 3.97482 10016 ft 291 kts 39°
2026-05-01 13:46 51.52772 3.99383 9621 ft 289 kts 39°
2026-05-01 13:46 51.54396 4.01266 9243 ft 287 kts 38°
2026-05-01 13:47 51.56026 4.03125 8867 ft 286 kts 38°
2026-05-01 13:47 51.57626 4.05006 8492 ft 285 kts 39°
2026-05-01 13:47 51.59219 4.06906 8111 ft 283 kts 39°
2026-05-01 13:47 51.60811 4.08758 7740 ft 282 kts 38°
2026-05-01 13:48 51.62389 4.10576 7372 ft 281 kts 38°
2026-05-01 13:48 51.63987 4.12436 6998 ft 279 kts 38°
2026-05-01 13:48 51.65542 4.14237 6628 ft 278 kts 38°
2026-05-01 13:48 51.67097 4.16072 6246 ft 276 kts 39°
2026-05-01 13:49 51.68632 4.17906 5882 ft 274 kts 39°
2026-05-01 13:49 51.70164 4.19716 5517 ft 273 kts 39°
2026-05-01 13:49 51.71711 4.21501 5141 ft 272 kts 38°
2026-05-01 13:49 51.73261 4.23261 4762 ft 271 kts 36°
2026-05-01 13:50 51.75037 4.24246 4405 ft 275 kts
2026-05-01 13:50 51.76915 4.23745 4067 ft 273 kts 345°
2026-05-01 13:50 51.78754 4.23020 3719 ft 271 kts 349°
2026-05-01 13:50 51.80619 4.22590 3359 ft 270 kts 354°
2026-05-01 13:51 51.82479 4.22153 2993 ft 271 kts 350°
2026-05-01 13:51 51.84336 4.21600 2644 ft 271 kts 349°
2026-05-01 13:51 51.86201 4.21512 2293 ft 267 kts 14°
2026-05-01 13:51 51.87671 4.23022 2272 ft 249 kts 54°
2026-05-01 13:52 51.88343 4.25485 2279 ft 235 kts 75°
2026-05-01 13:52 51.89154 4.27797 2156 ft 236 kts 57°
2026-05-01 13:52 51.90095 4.29936 1921 ft 235 kts 60°
2026-05-01 13:52 51.90936 4.32154 1619 ft 220 kts 63°
2026-05-01 13:53 51.91684 4.34044 1348 ft 171 kts 62°
2026-05-01 13:53 51.92770 4.36743 961 ft 132 kts 64°
2026-05-01 13:53 51.93253 4.37936 792 ft 123 kts 61°
2026-05-01 13:54 51.93714 4.39079 622 ft 118 kts 64°
2026-05-01 13:54 51.94148 4.40179 448 ft 115 kts 61°
2026-05-01 13:54 51.94570 4.41258 309 ft 112 kts 60°
2026-05-01 13:54 51.94998 4.42281 149 ft 107 kts 59°
2026-05-01 13:55 51.95392 4.43314 20 ft 109 kts 57°
2026-05-01 13:55 51.95755 4.44213 -5 ft 80 kts 54°
2026-05-01 13:55 51.95911 4.44636 -7 ft 14 kts 89°
2026-05-01 13:55 51.95884 4.44705 -6 ft 3 kts 141°
2026-05-01 13:56 51.95849 4.44740 -5 ft 0 kts 148°
2026-05-01 13:57 51.95849 4.44741 -5 ft 1 kts 148°
2026-05-01 13:57 51.95819 4.44764 -5 ft 8 kts 161°
2026-05-01 13:58 51.95758 4.44696 -5 ft 16 kts 237°
2026-05-01 13:58 51.95696 4.44536 -5 ft 16 kts 238°
2026-05-01 13:58 51.95628 4.44361 -5 ft 21 kts 238°
2026-05-01 13:58 51.95540 4.44148 -5 ft 25 kts 238°
2026-05-01 13:59 51.95440 4.43898 -5 ft 28 kts 236°
2026-05-01 13:59 51.95330 4.43617 -5 ft 30 kts 236°
2026-05-01 13:59 51.95221 4.43538 -5 ft 18 kts 145°
2026-05-01 13:59 51.95112 4.43651 -5 ft 18 kts 148°
2026-05-01 14:00 51.95020 4.43752 -5 ft 8 kts 122°
2026-05-01 14:00 51.95029 4.43806 -5 ft 8 kts 58°
2026-05-01 14:00 51.95065 4.43855 -5 ft 4 kts 322°
2026-05-01 14:00 51.95081 4.43836 -5 ft 0 kts 327°